Regional Weather Roundup
Issued by NWS Portland, ME

Home | Current Version | Previous Version | Text Only | Print | Product List | Glossary On
Versions: 1 2 3 4 5 6 7 8 9 10 11 12 13 14 15 16 17 18 19 20 21 22 23 24 25 26 27 28 29 30 31 32 33 34 35 36 37 38 39 40 41 42 43 44 45 46 47 48 49 50
000
ASUS41 KGYX 050510
RWRGYX
WEATHER ROUNDUP FOR MAINE AND NEW HAMPSHIRE
NATIONAL WEATHER SERVICE GRAY ME
1200 AM EST MON DEC 05 2016

MEZ002-005-006-010-012-015-018-020-021-024-026-027-029-050600-
MAINE

CITY           SKY/WX    TMP DP  RH WIND       PRES   REMARKS
PORTLAND       CLEAR     25  17  72 NW3       30.16F
SANFORD        CLEAR     14  12  92 CALM      30.16F
BAR HARBOR     CLEAR     21  18  88 W3        30.17
WISCASSET      CLEAR     22  17  81 CALM      30.18F
ROCKLAND       CLEAR     23  18  81 NW5       30.17F
FRYEBURG       CLEAR     15  13  91 CALM      30.14F
LEWISTONAUBURN CLEAR     18  15  88 CALM      30.16F
AUGUSTA        CLEAR     23  16  74 N3        30.16F
WATERVILLE     CLEAR     20  17  88 NE5       30.13F
BANGOR         CLEAR     19  15  84 CALM      30.16F
GREENVILLE       N/A     17  15  92 N7        30.06S
MILLINOCKET    CLEAR     19  14  81 NW5       30.13F
HOULTON        CLOUDY     9   8  96 CALM      30.09F
PRESQUE ISLE   CLOUDY     2  -2  83 CALM      30.11F
FRENCHVILLE    CLOUDY    14   9  80 N7        30.05F
CARIBOU        CLOUDY     7   2  80 CALM      30.08F
$$

NHZ002-005-008-009-011-012-014-050600-
NEW HAMPSHIRE

CITY           SKY/WX    TMP DP  RH WIND       PRES   REMARKS
PORTSMOUTH     MOCLDY    24  18  76 W5        30.15F
ROCHESTER      CLEAR     23  17  78 CALM      30.14F
NASHUA         CLOUDY    24  21  88 W3        30.17F
MANCHESTER     CLOUDY    26  19  74 CALM      30.15S
CONCORD        CLOUDY    21  17  84 CALM      30.16S
LACONIA        CLEAR     21  18  88 W3        30.14F
PLYMOUTH         N/A     20  19  93 CALM      30.14F
BERLIN         CLOUDY    13   7  77 N3        30.11F
WHITEFIELD     CLOUDY    16  10  77 CALM      30.09F
JAFFREY        CLOUDY    23  17  78 CALM      30.12F
KEENE          CLOUDY    21  19  92 CALM      30.14F
LEBANON        CLOUDY    21  18  88 CALM      30.14F
MT WASHINGTON  PTCLDY    21   0  39 SW12        N/A  WCI   9
$$

VTZ005-007-008-050600-
VERMONT

CITY           SKY/WX    TMP DP  RH WIND       PRES   REMARKS
ST JOHNSBURY     N/A     20  16  84 MISG      30.11F
MONTPELIER     CLEAR     16  14  92 CALM      30.13F
BURLINGTON     CLEAR     26  19  74 SE6       30.13F
$$

MAZ007-012-024-CTZ003-RIZ002-NYZ038-NYZ072-050600-
SOUTHERN NEW ENGLAND AND NY

CITY           SKY/WX    TMP DP  RH WIND       PRES   REMARKS
BOSTON         PTCLDY    32  21  64 W5        30.18S
WORCESTER      CLOUDY    27  18  69 NE5       30.11F
NANTUCKET      CLOUDY    32  23  69 W3        30.15F
PROVIDENCE     CLOUDY    31  21  66 NE5       30.17F
HARTFORD       CLOUDY    30  20  66 NW3       30.16F
ALBANY         CLOUDY    26  21  81 CALM      30.13F
NEW YORK CITY  CLOUDY    41  24  51 E8        30.13F
$$

ANZ081-ANZ082-ANZ150-NHZ014-MEZ023>029-050600-
COASTAL MARINE OBSERVATIONS

STATION/POSITION TIME  TEMP    WIND        PRES    WAVE
                       AIR SEA DIR/SP/G            HT/PER
                 (UTC) (F)     (DEG/KT/KT) (MB)    (FT/S)
MOUNT DESERT ROC 0500   31                 1021.2F
MATINICUS ROCK   0400   31      20/  8/ 10 1021.2F
ISLE OF SHOALS   0400   35      30/ 12/ 13 1021.1F
JEFFREYS LEDGE   0438      51                N/A     3/ 5
CASHES LEDGE BUO 0450   35 50   30/ 10/ 16 1020.6F   3/ 5
GEORGES BANK BUO 0450   42 50              1018.9F   7/ 8
$$

.............KEY..............
   WCI - WIND CHILL
   TC  - TEMPERATURE IN CELSIUS
   VSB - VISIBILITY IN MILES
   HX  - HEAT INDEX
   FAIR- INDICATES FEW OR NO CLOUDS BELOW 12,000 FT, WITH NO
         SIGNIFICANT WEATHER AND/OR OBSTRUCTIONS TO VISIBILITY.





USA.gov is the U.S. government's official web portal to all federal, state and local government web resources and services.